Retour au catalogue

STARLINK-4483

ActifCommunicationsVLEO
NORAD 53532·PAYLOAD·🇺🇸 United States

Lancé Aug 19, 2022 depuis Cape Canaveral Space Force Station

Loading…

Prochains Passages (prochaines 24 heures)

TLE

FraisSource: CelesTrak SupGP

Époque: Sep 14, 2026, 20:39 UTC

1 53532C 22101F   26257.86090278 -.00016851  00000+0 -10570-2 0  2570
2 53532  53.1586 304.2731 0001150  87.9255 327.1327 15.08835903    19

Suivez STARLINK-4483 en temps réel avec AllMySat

Download on the App Store